TimeCST,TemperatureF,Dew PointF,Humidity,Sea Level PressureIn,VisibilityMPH,Wind Direction,Wind SpeedMPH,Gust SpeedMPH,PrecipitationIn,Events,Conditions,WindDirDegrees,DateUTC
12:15 AM,44.6,42.8,93,29.98,0.2,Calm,Calm,-,N/A,Fog,Fog,0,2012-12-25 06:15:00
12:35 AM,44.6,42.8,93,29.97,0.2,Calm,Calm,-,N/A,Fog,Fog,0,2012-12-25 06:35:00
12:55 AM,44.6,42.8,93,29.98,0.2,Calm,Calm,-,N/A,Fog,Fog,0,2012-12-25 06:55:00
1:15 AM,44.6,42.8,93,29.98,0.2,Calm,Calm,-,N/A,Fog,Fog,0,2012-12-25 07:15:00
1:35 AM,44.6,42.8,93,29.99,0.2,Calm,Calm,-,N/A,Fog,Fog,0,2012-12-25 07:35:00
1:55 AM,44.6,42.8,93,29.99,0.5,Calm,Calm,-,N/A,Fog,Fog,0,2012-12-25 07:55:00
2:15 AM,42.8,42.8,100,29.99,0.5,Calm,Calm,-,N/A,Fog,Fog,0,2012-12-25 08:15:00
2:35 AM,42.8,42.8,100,30.00,0.5,Calm,Calm,-,N/A,Fog,Fog,0,2012-12-25 08:35:00
2:55 AM,42.8,42.8,100,30.00,0.5,Calm,Calm,-,N/A,Fog,Fog,0,2012-12-25 08:55:00
3:15 AM,42.8,42.8,100,30.00,0.8,Calm,Calm,-,N/A,,Overcast,0,2012-12-25 09:15:00
3:35 AM,42.8,42.8,100,30.00,1.2,Calm,Calm,-,N/A,,Overcast,0,2012-12-25 09:35:00
3:55 AM,44.6,42.8,93,30.00,3.0,Calm,Calm,-,N/A,,Overcast,0,2012-12-25 09:55:00
4:15 AM,44.6,42.8,93,30.01,2.5,Calm,Calm,-,N/A,,Overcast,0,2012-12-25 10:15:00
4:35 AM,44.6,42.8,93,30.01,2.5,Calm,Calm,-,N/A,,Overcast,0,2012-12-25 10:35:00
4:55 AM,44.6,42.8,93,30.02,3.0,Calm,Calm,-,N/A,,Overcast,0,2012-12-25 10:55:00
5:15 AM,44.6,42.8,93,30.02,3.0,Calm,Calm,-,N/A,,Overcast,0,2012-12-25 11:15:00
5:35 AM,44.6,42.8,93,30.03,3.0,Calm,Calm,-,N/A,,Overcast,0,2012-12-25 11:35:00
5:55 AM,44.6,42.8,93,30.04,2.5,Calm,Calm,-,N/A,,Overcast,0,2012-12-25 11:55:00
6:15 AM,44.6,42.8,93,30.04,3.0,Calm,Calm,-,N/A,,Overcast,0,2012-12-25 12:15:00
6:35 AM,44.6,42.8,93,30.04,3.0,Calm,Calm,-,N/A,,Overcast,0,2012-12-25 12:35:00
6:55 AM,44.6,42.8,93,30.02,2.5,Calm,Calm,-,N/A,,Overcast,0,2012-12-25 12:55:00
7:15 AM,44.6,42.8,93,30.02,1.8,Calm,Calm,-,N/A,,Overcast,0,2012-12-25 13:15:00
7:35 AM,42.8,42.8,100,30.03,0.5,Calm,Calm,-,N/A,Fog,Fog,0,2012-12-25 13:35:00
7:55 AM,42.8,42.8,100,30.03,0.2,Calm,Calm,-,N/A,Fog,Fog,0,2012-12-25 13:55:00
8:15 AM,44.6,42.8,93,30.04,0.2,Calm,Calm,-,N/A,Fog,Fog,0,2012-12-25 14:15:00
8:35 AM,44.6,44.6,100,30.05,0.2,Calm,Calm,-,N/A,Fog,Fog,0,2012-12-25 14:35:00
8:55 AM,44.6,44.6,100,30.05,1.0,Calm,Calm,-,N/A,,Overcast,0,2012-12-25 14:55:00
9:15 AM,46.4,44.6,93,30.05,4.0,Calm,Calm,-,N/A,,Overcast,0,2012-12-25 15:15:00
9:35 AM,46.4,46.4,100,30.04,5.0,Calm,Calm,-,N/A,,Overcast,0,2012-12-25 15:35:00
9:55 AM,46.4,46.4,100,30.05,7.0,Calm,Calm,-,N/A,,Overcast,0,2012-12-25 15:55:00
10:15 AM,46.4,46.4,100,30.04,10.0,Calm,Calm,-,N/A,,Overcast,0,2012-12-25 16:15:00
10:35 AM,48.2,48.2,100,30.04,10.0,Calm,Calm,-,N/A,,Overcast,0,2012-12-25 16:35:00
10:55 AM,48.2,48.2,100,30.03,10.0,Calm,Calm,-,N/A,,Overcast,0,2012-12-25 16:55:00
11:15 AM,50.0,46.4,87,30.03,10.0,Calm,Calm,-,N/A,,Mostly Cloudy,0,2012-12-25 17:15:00
11:35 AM,51.8,46.4,82,30.03,10.0,Calm,Calm,-,N/A,,Mostly Cloudy,0,2012-12-25 17:35:00
11:55 AM,51.8,44.6,76,30.01,10.0,Calm,Calm,-,N/A,,Overcast,0,2012-12-25 17:55:00
12:15 PM,51.8,46.4,82,30.00,10.0,Calm,Calm,-,N/A,,Overcast,0,2012-12-25 18:15:00
12:35 PM,51.8,46.4,82,30.01,10.0,ESE,3.5,-,N/A,,Scattered Clouds,110,2012-12-25 18:35:00
12:55 PM,51.8,46.4,82,30.01,10.0,East,4.6,-,N/A,,Mostly Cloudy,80,2012-12-25 18:55:00
1:15 PM,51.8,44.6,76,30.02,10.0,Calm,Calm,-,N/A,,Overcast,0,2012-12-25 19:15:00
1:35 PM,51.8,46.4,82,30.01,10.0,Calm,Calm,-,N/A,,Overcast,0,2012-12-25 19:35:00
1:55 PM,50.0,46.4,87,30.01,7.0,NE,8.1,-,N/A,,Overcast,50,2012-12-25 19:55:00
2:15 PM,48.2,46.4,93,30.00,5.0,NNE,9.2,-,N/A,,Mostly Cloudy,30,2012-12-25 20:15:00
2:35 PM,46.4,44.6,93,29.99,4.0,NE,8.1,-,N/A,,Mostly Cloudy,50,2012-12-25 20:35:00
2:55 PM,46.4,44.6,93,29.98,4.0,NE,5.8,-,N/A,,Overcast,50,2012-12-25 20:55:00
3:15 PM,46.4,44.6,93,29.98,5.0,ENE,3.5,-,N/A,,Overcast,60,2012-12-25 21:15:00
3:35 PM,46.4,44.6,93,29.98,5.0,Calm,Calm,-,N/A,,Overcast,0,2012-12-25 21:35:00
3:55 PM,46.4,44.6,93,29.97,7.0,Calm,Calm,-,N/A,,Overcast,0,2012-12-25 21:55:00
4:15 PM,46.4,44.6,93,29.98,7.0,Calm,Calm,-,N/A,,Overcast,0,2012-12-25 22:15:00
4:35 PM,46.4,44.6,93,29.98,7.0,Calm,Calm,-,N/A,,Overcast,0,2012-12-25 22:35:00
4:55 PM,46.4,44.6,93,29.98,7.0,Calm,Calm,-,N/A,,Overcast,0,2012-12-25 22:55:00
5:15 PM,46.4,44.6,93,29.97,7.0,Calm,Calm,-,N/A,,Overcast,0,2012-12-25 23:15:00
5:35 PM,46.4,44.6,93,29.96,5.0,Calm,Calm,-,N/A,,Overcast,0,2012-12-25 23:35:00
5:55 PM,46.4,44.6,93,29.95,5.0,Calm,Calm,-,N/A,,Overcast,0,2012-12-25 23:55:00
6:15 PM,46.4,44.6,93,29.94,7.0,Calm,Calm,-,N/A,,Mostly Cloudy,0,2012-12-26 00:15:00
6:35 PM,46.4,44.6,93,29.92,7.0,Calm,Calm,-,N/A,,Scattered Clouds,0,2012-12-26 00:35:00
6:55 PM,44.6,44.6,100,29.90,7.0,Calm,Calm,-,N/A,,Scattered Clouds,0,2012-12-26 00:55:00
7:15 PM,44.6,44.6,100,29.90,5.0,Calm,Calm,-,N/A,,Mostly Cloudy,0,2012-12-26 01:15:00
7:35 PM,44.6,42.8,93,29.88,5.0,Calm,Calm,-,N/A,,Mostly Cloudy,0,2012-12-26 01:35:00
7:55 PM,44.6,42.8,93,29.91,4.0,Calm,Calm,-,N/A,,Mostly Cloudy,0,2012-12-26 01:55:00
8:15 PM,44.6,42.8,93,29.93,4.0,Calm,Calm,-,N/A,,Overcast,0,2012-12-26 02:15:00
8:35 PM,44.6,42.8,93,29.92,3.0,Calm,Calm,-,N/A,Rain,Rain,0,2012-12-26 02:35:00
8:55 PM,44.6,42.8,93,29.91,2.5,Calm,Calm,-,N/A,Rain,Rain,0,2012-12-26 02:55:00
9:15 PM,44.6,42.8,93,29.89,3.0,Calm,Calm,-,N/A,Rain,Rain,0,2012-12-26 03:15:00
10:15 PM,44.6,44.6,100,29.89,2.0,NW,3.5,-,0.04,Rain,Heavy Rain,310,2012-12-26 04:15:00
10:35 PM,44.6,44.6,100,29.88,2.5,Calm,Calm,-,0.08,Rain,Rain,0,2012-12-26 04:35:00
10:55 PM,44.6,44.6,100,29.87,2.0,Calm,Calm,-,0.02,Rain,Rain,0,2012-12-26 04:55:00
11:15 PM,44.6,44.6,100,29.86,2.5,Calm,Calm,-,0.07,Rain,Rain,0,2012-12-26 05:15:00
11:35 PM,44.6,44.6,100,29.83,3.0,South,4.6,-,0.12,Rain,Rain,180,2012-12-26 05:35:00
11:55 PM,46.4,46.4,100,29.80,7.0,ESE,3.5,-,0.01,Rain,Light Rain,110,2012-12-26 05:55:00